Location: Unspecified
(52.1384°N, 8.6525°W)
Time: 17:44:47
(UTC+00:00)

N. Korean satellite - Pass Details

Date: 03 November 2020
Orbit: 453 x 503 km, 97.2° (Epoch: 04 December)

Event Time Altitude Azimuth Distance (km) Brightness Sun altitude
Rises 17:40:14 0° 186° (S) 2,515 10.5 -6.4°
Reaches altitude 10° 17:42:25 10° 196° (SSW) 1,633 9.7 -6.7°
Maximum altitude 17:45:39 34° 263° (W) 793 8.5 -7.2°
Drops below altitude 10° 17:48:51 10° 330° (NNW) 1,623 9.4 -7.7°
Sets 17:51:02 0° 340° (NNW) 2,497 10.3 -8.0°
